Weather History for PASX - December, 2011

Change the Weather History Date:

Friday, December 23, 2011

  Actual Average Record
Temperature  
Mean Temperature 8 °F -  
Max Temperature 17 °F 23 °F 43 °F (1970)
Min Temperature 0 °F 9 °F -31 °F (1961)
Degree Days  
Heating Degree Days 56    
Moisture  
Dew Point 4 °F    
Average Humidity 85    
Maximum Humidity 100    
Minimum Humidity 67    
Precipitation  
Precipitation 0.00 in - - ()
Sea Level Pressure  
Sea Level Pressure 29.32 in    
Wind  
Wind Speed 1 mph (East)    
Max Wind Speed 6 mph    
Max Gust Speed -    
Visibility 10 miles    
Events      
Averages and records for this station are not official NWS values.
T = Trace of Precipitation, MM = Missing Value Source: NWS Daily Summary

Daily Weather History Graph

Daily Weather History Graph

Search for Another Location

Airport or City:

Trip Planner

Search our weather history database for the weather conditions in past years. The results will help you decide how hot, cold, wet, or windy it might be!

Date:

Astronomy

Dec. 23, 2011 Rise Set
Actual Time 10:11 AM AKST 3:54 PM AKST
Civil Twilight 9:12 AM AKST 4:54 PM AKST
Nautical Twilight 8:14 AM AKST 5:52 PM AKST
Astronomical Twilight 7:21 AM AKST 6:44 PM AKST
Moon 9:16 AM AKST (12/23) 3:10 PM AKST (12/23)
Length of Visible Light 7h 42m
Length of Day
5h 43m
Waning Crescent, 1% of the Moon is Illuminated
Dec 23
Waning Crescent
Dec 24
New
Dec 31
First Quarter
Jan 8
Full
Jan 16
Last Quarter

Hourly Weather History & Observations

Time (AKST) Temp. Windchill Dew Point Humidity Pressure Visibility Wind Dir Wind Speed Gust Speed Precip Events Conditions
12:16 AM 17.6 °F - 14.0 °F 86% 29.07 in - Calm Calm - N/A   Overcast
12:36 AM 15.8 °F 10.2 °F 12.2 °F 86% 29.08 in 10.0 mi South 3.5 mph - N/A   Scattered Clouds
12:56 AM 15.8 °F - 12.2 °F 86% 29.09 in 10.0 mi Calm Calm - N/A   Clear
1:16 AM 15.8 °F - 14.0 °F 93% 29.10 in 10.0 mi Calm Calm - N/A   Partly Cloudy
1:36 AM 12.2 °F - 8.6 °F 85% 29.11 in 10.0 mi Calm Calm - N/A   Mostly Cloudy
1:56 AM 12.2 °F - 10.4 °F 92% 29.12 in 10.0 mi Calm Calm - N/A   Partly Cloudy
2:16 AM 12.2 °F - 10.4 °F 92% 29.13 in 10.0 mi Calm Calm - N/A   Clear
2:36 AM 12.2 °F - 10.4 °F 92% 29.14 in 10.0 mi Calm Calm - N/A   Partly Cloudy
2:56 AM 10.4 °F - 6.8 °F 85% 29.15 in 10.0 mi Calm Calm - N/A   Clear
3:16 AM 10.4 °F - 3.2 °F 73% 29.16 in 10.0 mi Calm Calm - N/A   Clear
3:36 AM 8.6 °F 2.0 °F 3.2 °F 79% 29.17 in 10.0 mi SE 3.5 mph - N/A   Clear
3:56 AM 10.4 °F - 8.6 °F 92% 29.17 in 10.0 mi Calm Calm - N/A   Clear
4:16 AM 6.8 °F - 1.4 °F 79% 29.18 in 10.0 mi Calm Calm - N/A   Clear
4:36 AM 6.8 °F - 3.2 °F 85% 29.19 in 10.0 mi Calm Calm - N/A   Clear
4:56 AM 8.6 °F - 5.0 °F 85% 29.20 in 10.0 mi Calm Calm - N/A   Clear
5:16 AM 10.4 °F - 3.2 °F 73% 29.22 in 10.0 mi Calm Calm - N/A   Clear
5:36 AM 10.4 °F - 8.6 °F 92% 29.22 in 10.0 mi Calm Calm - N/A   Clear
5:56 AM 8.6 °F - 1.4 °F 73% 29.23 in 10.0 mi Calm Calm - N/A   Clear
6:16 AM 10.4 °F 0.8 °F 6.8 °F 85% 29.24 in 10.0 mi South 5.8 mph - N/A   Clear
6:36 AM 12.2 °F - 10.4 °F 92% 29.25 in 10.0 mi Calm Calm - N/A   Clear
6:56 AM 10.4 °F 4.0 °F 6.8 °F 85% 29.26 in 10.0 mi ENE 3.5 mph - N/A   Clear
7:16 AM 8.6 °F -1.3 °F 3.2 °F 79% 29.27 in 10.0 mi South 5.8 mph - N/A   Clear
7:36 AM 10.4 °F 4.0 °F 10.4 °F 100% 29.28 in 10.0 mi SSE 3.5 mph - N/A   Clear
7:56 AM 8.6 °F - 3.2 °F 79% 29.29 in 10.0 mi Calm Calm - N/A   Clear
8:16 AM 10.4 °F - 5.0 °F 79% 29.30 in 10.0 mi Calm Calm - N/A   Clear
8:36 AM 6.8 °F - 1.4 °F 79% 29.31 in 10.0 mi Calm Calm - N/A   Clear
8:56 AM 6.8 °F -0.1 °F 3.2 °F 85% 29.31 in 10.0 mi ENE 3.5 mph - N/A   Clear
9:16 AM 6.8 °F - 1.4 °F 79% 29.33 in 10.0 mi Calm Calm - N/A   Clear
9:36 AM 3.2 °F -4.2 °F 1.4 °F 92% 29.34 in 10.0 mi East 3.5 mph - N/A   Clear
9:56 AM 6.8 °F -0.1 °F 1.4 °F 79% 29.36 in 10.0 mi WNW 3.5 mph - N/A   Clear
10:16 AM 5.0 °F - 1.4 °F 85% 29.37 in 10.0 mi Calm Calm - N/A   Clear
10:36 AM 6.8 °F - 3.2 °F 85% 29.38 in 10.0 mi Calm Calm - N/A   Clear
10:56 AM 3.2 °F -4.2 °F 1.4 °F 92% 29.40 in 10.0 mi East 3.5 mph - N/A   Clear
11:16 AM 3.2 °F - 1.4 °F 92% 29.41 in 10.0 mi Calm Calm - N/A   Clear
11:36 AM 6.8 °F -0.1 °F 3.2 °F 85% 29.41 in 10.0 mi ENE 3.5 mph - N/A   Clear
11:56 AM 5.0 °F - -0.4 °F 78% 29.42 in 10.0 mi Calm Calm - N/A   Clear
12:16 PM 8.6 °F 2.0 °F 6.8 °F 92% 29.43 in 10.0 mi East 3.5 mph - N/A   Clear
12:36 PM 8.6 °F 0.1 °F 3.2 °F 79% 29.43 in 10.0 mi East 4.6 mph - N/A   Clear
12:56 PM 8.6 °F 2.0 °F 6.8 °F 92% 29.44 in 9.0 mi East 3.5 mph - N/A   Clear
1:16 PM 8.6 °F - 3.2 °F 79% 29.45 in 10.0 mi Calm Calm - N/A   Clear
1:36 PM 8.6 °F 0.1 °F 6.8 °F 92% 29.45 in 10.0 mi East 4.6 mph - N/A   Clear
1:56 PM 10.4 °F 4.0 °F 6.8 °F 85% 29.45 in 10.0 mi ENE 3.5 mph - N/A   Clear
2:16 PM 10.4 °F - 6.8 °F 85% 29.45 in 10.0 mi Calm Calm - N/A   Clear
2:36 PM 6.8 °F - 1.4 °F 79% 29.45 in 10.0 mi Calm Calm - N/A   Clear
2:56 PM 6.8 °F - 1.4 °F 79% 29.46 in 10.0 mi Calm Calm - N/A   Clear
3:16 PM 6.8 °F - 5.0 °F 92% 29.46 in 10.0 mi Calm Calm - N/A   Clear
3:36 PM 6.8 °F - 3.2 °F 85% 29.47 in 9.0 mi Calm Calm - N/A   Clear
3:56 PM 6.8 °F - -2.2 °F 67% 29.47 in 9.0 mi Calm Calm - N/A   Clear
4:16 PM 3.2 °F - -0.4 °F 85% 29.47 in 10.0 mi Calm Calm - N/A   Clear
4:36 PM 5.0 °F - 1.4 °F 85% 29.47 in 10.0 mi Calm Calm - N/A   Clear
4:56 PM 3.2 °F - -2.2 °F 78% 29.48 in 10.0 mi Calm Calm - N/A   Clear
5:16 PM 1.4 °F - -2.2 °F 85% 29.48 in 10.0 mi Calm Calm - N/A   Clear
5:36 PM 1.4 °F - -5.8 °F 72% 29.49 in 10.0 mi Calm Calm - N/A   Clear
5:56 PM -0.4 °F - -2.2 °F 92% 29.49 in 10.0 mi Calm Calm - N/A   Scattered Clouds
6:16 PM 1.4 °F - -0.4 °F 92% 29.50 in 10.0 mi Calm Calm - N/A   Overcast
6:36 PM 5.0 °F -2.1 °F 3.2 °F 92% 29.50 in 10.0 mi ENE 3.5 mph - N/A   Overcast
6:56 PM 5.0 °F -2.1 °F -0.4 °F 78% 29.50 in 10.0 mi East 3.5 mph - N/A   Overcast
7:16 PM 5.0 °F - 3.2 °F 92% 29.51 in 10.0 mi Calm Calm - N/A   Overcast
7:36 PM 3.2 °F - 1.4 °F 92% 29.51 in 10.0 mi Calm Calm - N/A   Overcast
7:56 PM 3.2 °F - -0.4 °F 85% 29.51 in 10.0 mi Calm Calm - N/A   Mostly Cloudy
8:16 PM 3.2 °F - -0.4 °F 85% 29.52 in 10.0 mi Calm Calm - N/A   Mostly Cloudy
8:36 PM 3.2 °F -4.2 °F -0.4 °F 85% 29.52 in 10.0 mi East 3.5 mph - N/A   Mostly Cloudy
8:56 PM 1.4 °F - -4.0 °F 78% 29.53 in 10.0 mi Calm Calm - N/A   Overcast
9:16 PM 3.2 °F - -0.4 °F 85% 29.53 in 10.0 mi Calm Calm - N/A   Overcast
9:36 PM 1.4 °F - -2.2 °F 85% 29.53 in 10.0 mi Calm Calm - N/A   Partly Cloudy
9:56 PM -0.4 °F - -0.4 °F 100% 29.54 in 10.0 mi Calm Calm - N/A   Clear
10:16 PM 1.4 °F - 1.4 °F 100% 29.55 in 10.0 mi Calm Calm - N/A   Partly Cloudy
10:36 PM 1.4 °F - -5.8 °F 72% 29.55 in 10.0 mi Calm Calm - N/A   Clear
11:16 PM -0.4 °F - -4.0 °F 85% 29.56 in 10.0 mi Calm Calm - N/A   Clear
11:36 PM -2.2 °F - -9.4 °F 71% 29.57 in 10.0 mi Calm Calm - N/A   Clear
11:56 PM -2.2 °F - -4.0 °F 92% 29.57 in 10.0 mi Calm Calm - N/A   Clear